Wind_Speed
27 29 31 31 33 33 31 31 33 30 29 32 28 25 25 29 32 35 29 30 29 30 33 33 32 34 38 38 39 37 42 46 48 45 50 63 71 68 63 61 57 54 53 46
30 33 34 36 35 32 27 30 30 29 25 28 26 23 28 27 30 31 31 32 29 30 33 38 36 36 34 37 34 36 38 42 49 48 43 48 62 71 68 65 64 61 58 53
31 32 33 33 35 33 24 30 30 29 23 21 26 22 28 35 31 33 30 28 32 35 36 37 37 38 37 37 39 36 37 39 44 52 47 44 43 62 73 69 66 67 62 56
30 31 29 29 30 27 25 26 25 20 20 22 25 27 26 32 34 32 31 30 32 35 38 41 43 40 44 46 44 40 41 39 42 47 52 48 43 46 65 72 69 74 64 57
24 22 23 20 19 19 21 21 19 20 23 25 24 25 19 24 30 32 31 32 33 33 37 41 42 42 44 50 45 48 43 44 44 45 48 51 51 42 49 72 69 65 63 58
22 21 21 19 18 19 21 22 20 23 18 15 20 24 20 25 28 26 27 34 33 32 36 40 46 49 49 48 51 50 49 44 48 51 50 48 51 51 43 58 72 72 53 63
17 20 21 24 24 20 21 23 21 17 12 10 20 19 16 17 17 23 25 26 33 38 39 41 47 50 49 47 49 52 48 46 48 53 53 56 49 56 51 48 69 75 54 74
16 18 18 22 25 22 19 20 22 19 20 11 14 15 19 21 19 19 25 28 32 37 40 42 42 43 46 50 51 50 49 48 48 57 57 52 53 53 57 52 56 79 77 58
19 19 22 23 20 20 18 22 20 17 21 14 11 16 18 18 19 24 24 24 30 34 33 33 39 44 42 44 45 47 46 43 46 49 54 56 57 58 54 54 50 57 70 66
20 18 21 19 19 20 18 15 13 22 21 19 18 19 21 17 16 20 22 25 31 33 28 33 41 38 40 39 38 38 37 41 46 50 45 51 53 60 55 58 53 54 69 66
20 19 19 22 18 18 13 11 19 23 19 20 23 23 25 20 23 22 25 30 32 33 28 35 39 37 37 35 34 34 32 36 35 40 42 45 51 58 59 56 57 54 62 61
16 15 19 21 18 17 17 15 23 25 19 17 23 24 27 26 25 26 29 31 33 32 27 31 32 36 39 34 26 26 33 28 25 29 40 43 47 60 63 56 58 54 63 62
18 18 19 20 21 19 16 18 22 25 21 21 23 26 30 25 24 25 29 32 34 30 25 30 30 33 31 36 30 15 17 14 19 21 30 47 56 56 60 57 58 54 63 64
17 21 21 20 18 17 14 11 12 17 20 18 22 26 27 23 26 23 26 29 31 30 31 29 26 31 34 37 35 20 15 15 14 14 22 39 52 52 57 57 58 58 66 70
18 19 20 22 21 19 17 14 13 18 15 19 23 29 24 27 31 33 25 26 29 28 30 27 25 26 31 28 28 20 18 13 13 15 17 29 39 49 52 56 57 54 62 63
20 21 19 23 23 18 17 15 16 13 16 18 23 22 25 24 29 32 23 23 26 27 26 29 27 25 27 28 22 18 20 17 12 19 22 23 34 51 46 50 53 55 56 61
23 21 21 23 21 17 16 15 16 17 21 22 27 25 24 27 30 33 20 22 24 27 28 27 23 25 24 21 20 17 18 16 23 10 25 23 28 35 43 46 46 52 49 52
24 22 19 19 18 16 16 19 19 20 22 24 25 26 25 28 31 33 28 22 25 28 26 26 27 27 20 21 18 17 24 17 17 18 25 28 26 31 38 45 45 48 42 46
22 22 21 19 19 16 17 18 18 19 24 23 25 28 30 29 28 30 32 27 27 26 28 28 31 21 14 20 16 15 18 11 6 12 17 15 20 29 40 50 54 37 33 30
21 18 22 21 26 23 20 19 19 23 23 22 25 27 28 26 25 26 28 29 26 24 26 26 27 17 22 23 14 13 6 12 2 25 16 9 15 26 31 38 50 42 26 31
20 21 22 23 28 26 27 26 25 22 21 21 23 25 25 28 28 27 28 29 29 23 23 25 21 19 19 20 11 16 11 5 3 8 11 18 16 27 28 30 30 47 35 28
27 26 23 22 26 27 28 28 26 25 26 25 24 25 25 27 27 27 29 27 27 23 22 24 22 17 20 16 11 14 8 8 3 6 11 19 12 42 36 31 26 32 31 29
31 27 24 26 26 25 28 29 27 25 26 25 23 26 25 23 25 26 28 27 27 23 21 21 21 18 14 16 15 16 11 12 8 14 30 25 31 25 24 9 30 36 18 22
27 26 28 25 25 29 27 30 28 26 25 28 27 25 25 23 24 24 25 27 27 23 21 23 22 18 11 12 12 8 2 18 14 12 32 32 15 18 17 24 27 32 28 23
28 31 31 26 28 28 28 30 31 28 27 27 26 26 23 22 24 24 24 26 26 24 22 23 23 13 7 8 10 17 12 20 17 26 29 29 28 21 25 25 19 14 25 23
31 30 30 27 31 28 24 27 30 30 28 28 26 27 25 22 24 23 23 24 24 22 23 26 23 12 3 6 4 31 25 23 30 28 28 27 33 27 22 23 22 22 19 16
Wind_Direction
293 291 284 282 283 283 279 272 271 270 282 283 288 286 272 270 277 269 268 272 273 269 267 274 285 282 277 274 271 260 256 261 258 257 255 243 233 229 227 231 234 234 237 232
295 291 290 289 286 284 287 281 277 280 286 284 287 285 281 272 271 269 268 272 274 275 285 288 286 287 276 273 270 271 265 255 259 256 256 257 242 228 227 225 230 230 231 233
293 289 288 290 291 296 293 286 290 297 294 291 284 285 272 274 277 265 257 267 267 275 280 281 286 287 275 271 269 273 277 270 259 253 252 259 253 239 227 225 225 230 229 230
291 292 292 297 299 307 298 294 302 309 298 291 290 284 270 276 275 270 269 274 274 276 279 281 287 288 284 287 277 266 277 271 267 257 249 249 258 249 233 227 229 230 226 227
297 297 301 310 316 307 302 300 309 302 298 298 285 285 281 264 267 272 271 266 268 275 281 280 280 285 290 286 279 282 272 266 253 257 254 250 251 251 241 230 231 234 226 227
306 308 308 307 303 299 304 305 313 308 309 308 288 284 284 277 284 290 276 270 278 290 285 287 286 284 285 284 274 280 276 271 260 254 247 249 247 248 244 237 228 228 226 226
314 313 315 313 310 315 311 311 310 310 298 318 301 304 309 291 295 297 288 281 284 290 293 294 292 295 294 281 284 276 273 269 266 253 247 247 243 242 243 242 228 224 231 222
330 312 314 314 317 318 312 310 316 314 330 332 307 310 307 303 310 300 301 309 307 303 298 300 303 303 298 292 289 282 277 273 259 252 248 240 237 242 238 236 232 226 227 226
323 325 324 323 314 314 317 312 320 315 324 337 328 311 310 321 316 310 310 313 314 307 302 308 312 307 298 288 285 279 275 270 259 249 244 239 236 234 234 234 235 227 223 222
322 335 329 324 321 319 321 314 328 330 322 324 339 331 314 312 313 322 321 319 333 328 311 308 316 316 315 303 287 281 272 268 259 248 245 233 230 228 223 229 231 227 218 218
329 338 337 326 329 326 309 297 301 319 327 328 327 335 330 325 327 334 334 340 335 336 320 318 321 321 320 311 295 279 271 274 267 260 233 221 224 227 223 221 225 221 216 218
318 335 343 335 329 320 319 291 305 314 330 324 321 330 329 327 334 336 340 338 339 338 329 324 317 321 318 320 313 285 269 267 268 262 236 221 217 217 218 217 220 219 213 214
327 332 339 338 332 323 318 323 325 315 309 307 307 317 320 320 328 332 334 336 341 341 323 325 317 328 326 331 334 319 269 293 284 256 227 213 205 209 210 211 215 213 207 212
322 326 325 329 331 329 314 315 311 328 307 305 321 325 321 313 311 325 326 332 340 345 340 328 326 329 329 334 345 325 332 314 276 242 207 204 207 208 210 209 210 205 205 209
313 311 314 323 327 327 330 315 297 334 334 330 330 336 344 335 331 325 319 332 338 352 350 340 334 332 332 336 344 329 325 300 254 203 215 213 205 206 209 206 206 201 205 209
314 308 313 320 315 322 327 328 327 338 327 334 338 335 327 332 336 341 320 323 338 349 345 341 341 334 335 336 341 336 318 276 286 220 208 205 208 209 204 204 202 199 202 208
315 314 310 301 304 314 316 318 324 326 344 316 331 328 330 340 344 348 322 325 343 347 354 353 348 344 337 342 345 355 344 333 320 266 206 193 180 192 194 198 199 192 197 215
311 305 292 292 299 305 315 312 316 325 313 323 327 326 333 341 347 343 343 334 341 341 346 353 360 350 346 349 358 360 352 359 25 140 164 176 189 197 195 185 183 191 211 211
301 297 296 299 298 301 309 306 305 309 310 329 336 336 333 333 340 342 347 334 330 338 340 359 2 1 346 353 6 7 344 6 67 93 130 141 186 191 183 180 176 190 182 208
300 296 301 299 303 311 309 303 307 311 318 331 330 326 324 323 338 343 344 345 333 338 343 355 9 360 359 354 357 20 35 24 337 117 148 115 169 176 181 186 201 200 218 193
292 284 293 301 308 317 308 312 301 307 321 320 317 320 328 333 334 338 344 347 342 341 341 353 7 2 350 360 29 27 34 353 210 113 107 119 140 161 168 176 207 210 152 155
292 290 294 297 297 302 303 300 307 316 317 320 317 319 327 333 330 335 339 344 343 338 337 342 354 360 6 4 11 6 350 343 287 197 235 129 152 155 133 142 157 167 171 177
281 285 281 287 290 296 293 299 309 312 313 314 315 316 321 326 327 329 331 339 343 338 334 335 342 349 355 1 6 351 355 139 136 108 144 144 162 158 200 149 166 151 142 145
274 273 277 280 288 288 295 299 302 304 311 314 317 316 316 327 325 325 328 334 339 339 335 332 332 337 327 360 11 83 86 138 125 153 140 136 139 179 181 150 149 152 158 163
266 266 271 281 280 282 288 291 297 305 311 309 311 312 318 322 322 324 325 329 337 340 337 331 330 328 319 29 17 116 129 137 117 135 126 136 150 132 129 128 146 164 172 159
268 268 269 269 268 273 283 293 301 303 300 300 304 309 315 322 317 317 323 327 336 339 337 333 336 351 234 107 91 129 127 128 120 125 115 133 142 134 129 134 148 154 152 165
Height
5805 5802 5797 5795 5791 5789 5788 5786 5783 5783 5780 5776 5777 5776 5768 5765 5765 5762 5761 5761 5762 5763 5763 5762 5760 5760 5759 5759 5759 5760 5760 5756 5752 5753 5756 5759 5768 5777 5784 5790 5799 5805 5810 5818
5798 5791 5788 5784 5782 5781 5779 5774 5771 5770 5771 5769 5768 5766 5759 5758 5756 5756 5756 5755 5754 5753 5753 5752 5750 5749 5749 5748 5748 5748 5750 5746 5744 5743 5746 5745 5750 5761 5770 5776 5782 5789 5796 5804
5788 5785 5779 5775 5772 5771 5770 5765 5764 5763 5764 5761 5756 5760 5751 5747 5751 5748 5748 5748 5748 5747 5745 5743 5742 5741 5739 5739 5737 5736 5737 5736 5734 5733 5734 5736 5737 5746 5755 5763 5770 5775 5784 5793
5779 5776 5772 5768 5766 5765 5763 5760 5759 5758 5754 5753 5751 5749 5747 5743 5743 5742 5742 5741 5740 5738 5735 5732 5731 5729 5726 5724 5722 5726 5726 5725 5723 5721 5724 5725 5728 5729 5742 5752 5760 5766 5774 5783
5773 5773 5768 5765 5763 5759 5756 5755 5754 5752 5748 5746 5742 5739 5739 5736 5737 5736 5735 5733 5731 5729 5728 5725 5721 5718 5717 5713 5712 5709 5711 5711 5709 5708 5712 5717 5717 5722 5724 5733 5744 5756 5766 5773
5769 5766 5763 5761 5758 5754 5752 5750 5749 5745 5743 5740 5736 5733 5734 5731 5729 5728 5726 5724 5722 5722 5719 5715 5710 5706 5704 5699 5698 5696 5695 5695 5694 5694 5697 5702 5707 5712 5715 5719 5730 5742 5750 5760
5767 5761 5758 5755 5753 5751 5747 5745 5744 5743 5741 5737 5730 5728 5726 5724 5723 5721 5719 5717 5716 5712 5707 5703 5698 5694 5689 5685 5682 5678 5680 5681 5678 5676 5681 5688 5693 5695 5704 5707 5719 5728 5736 5744
5764 5759 5756 5751 5747 5745 5743 5741 5738 5733 5733 5733 5727 5725 5721 5720 5719 5716 5710 5708 5705 5700 5694 5689 5683 5679 5673 5668 5661 5659 5657 5661 5659 5659 5664 5671 5677 5681 5690 5695 5705 5714 5725 5735
5760 5756 5751 5748 5745 5742 5740 5736 5733 5731 5729 5728 5726 5722 5718 5715 5713 5710 5706 5703 5698 5691 5684 5678 5673 5667 5660 5653 5646 5641 5637 5638 5638 5639 5644 5653 5662 5666 5675 5684 5691 5698 5711 5725
5755 5754 5749 5745 5742 5738 5735 5733 5731 5727 5725 5722 5721 5718 5714 5713 5709 5705 5700 5694 5688 5680 5674 5670 5663 5655 5647 5638 5630 5625 5622 5620 5618 5621 5625 5633 5645 5651 5659 5669 5679 5687 5702 5717
5752 5750 5746 5740 5739 5735 5732 5729 5726 5724 5722 5718 5714 5714 5709 5705 5702 5698 5692 5685 5678 5672 5665 5659 5653 5644 5637 5627 5618 5612 5608 5604 5603 5603 5611 5617 5627 5638 5646 5657 5667 5675 5689 5705
5751 5748 5743 5739 5736 5733 5729 5726 5724 5719 5719 5717 5714 5711 5705 5700 5695 5690 5685 5679 5671 5664 5657 5650 5644 5637 5628 5618 5606 5598 5593 5592 5589 5586 5593 5602 5611 5620 5632 5647 5658 5666 5680 5697
5747 5744 5741 5737 5733 5728 5726 5724 5721 5717 5715 5714 5710 5707 5700 5697 5692 5686 5681 5675 5667 5659 5652 5645 5637 5629 5620 5610 5599 5588 5585 5580 5577 5575 5578 5585 5594 5606 5619 5635 5649 5658 5673 5687
5744 5740 5738 5735 5732 5728 5724 5721 5720 5716 5711 5710 5706 5702 5698 5693 5688 5684 5678 5672 5663 5653 5646 5639 5631 5622 5613 5602 5591 5583 5578 5576 5575 5573 5575 5582 5591 5600 5614 5625 5636 5648 5662 5674
5741 5739 5735 5731 5727 5724 5721 5719 5716 5713 5709 5706 5703 5696 5692 5687 5682 5677 5672 5665 5659 5650 5643 5635 5627 5617 5610 5601 5591 5582 5577 5573 5576 5574 5577 5581 5589 5598 5610 5620 5629 5643 5657 5674
5736 5734 5731 5727 5724 5721 5718 5714 5711 5709 5706 5703 5699 5696 5690 5685 5679 5671 5664 5659 5654 5646 5638 5631 5624 5614 5606 5598 5589 5583 5578 5572 5572 5576 5575 5578 5585 5594 5605 5617 5627 5641 5656 5669
5730 5728 5727 5724 5721 5718 5715 5711 5708 5706 5702 5699 5696 5691 5686 5681 5675 5669 5661 5655 5649 5643 5635 5627 5620 5612 5604 5597 5589 5585 5578 5575 5569 5570 5573 5580 5586 5595 5604 5616 5630 5644 5655 5666
5727 5724 5722 5720 5717 5715 5711 5707 5703 5701 5698 5696 5691 5686 5682 5677 5672 5665 5659 5652 5646 5639 5633 5624 5617 5609 5602 5595 5591 5586 5580 5579 5572 5571 5577 5585 5591 5596 5604 5616 5630 5644 5649 5661
5723 5719 5715 5713 5711 5711 5707 5704 5702 5699 5696 5692 5687 5682 5678 5675 5672 5663 5655 5648 5643 5637 5629 5622 5614 5606 5601 5596 5591 5589 5584 5581 5583 5578 5585 5591 5594 5600 5608 5619 5632 5643 5651 5657
5716 5713 5710 5707 5703 5702 5701 5699 5697 5693 5691 5688 5684 5680 5675 5672 5669 5662 5655 5649 5641 5635 5628 5622 5614 5607 5602 5597 5593 5590 5588 5587 5587 5586 5587 5592 5598 5604 5614 5626 5635 5639 5649 5662
5710 5706 5704 5701 5697 5696 5693 5693 5690 5690 5690 5684 5680 5676 5672 5668 5665 5659 5653 5647 5639 5634 5628 5622 5616 5610 5605 5601 5597 5593 5591 5589 5587 5590 5592 5596 5603 5611 5621 5630 5636 5649 5650 5659
5701 5699 5698 5697 5694 5693 5689 5686 5685 5684 5681 5679 5675 5671 5668 5666 5661 5657 5652 5646 5639 5633 5628 5622 5617 5612 5607 5603 5600 5597 5595 5594 5593 5594 5597 5605 5611 5618 5624 5634 5642 5648 5653 5662
5693 5694 5693 5692 5689 5687 5682 5680 5680 5679 5676 5673 5670 5666 5664 5663 5658 5654 5650 5644 5639 5633 5627 5623 5618 5612 5609 5604 5600 5595 5593 5593 5596 5598 5602 5609 5618 5625 5631 5641 5645 5651 5659 5664
5687 5684 5684 5684 5683 5678 5679 5674 5673 5672 5671 5668 5666 5662 5660 5659 5654 5651 5647 5642 5637 5631 5626 5621 5617 5611 5607 5604 5601 5597 5597 5599 5603 5605 5610 5615 5622 5628 5634 5643 5646 5650 5656 5663
5678 5676 5675 5678 5675 5672 5671 5667 5665 5665 5664 5662 5659 5657 5656 5654 5650 5647 5644 5640 5636 5629 5624 5620 5614 5610 5606 5605 5603 5602 5602 5606 5610 5612 5615 5621 5628 5633 5640 5646 5651 5655 5660 5665
5667 5667 5667 5669 5664 5664 5665 5662 5660 5660 5659 5656 5654 5652 5652 5650 5647 5643 5641 5638 5634 5628 5622 5617 5612 5606 5604 5606 5607 5608 5608 5612 5613 5616 5623 5628 5632 5637 5642 5648 5655 5659 5664 5669